User: anonymous   Login
Location: Unspecified
(0.0000°N, 0.0000°E)
Time: 17:02:16
(UTC+00:00)
Language:

Kosmos-2184 - Orbit

View from above orbital plane
View from above orbital plane
View from above satellite
View from above satellite

Ground track
Ground track

The orbit data is extracted from the following two-line orbital elements,

1 21937U 92020A   18175.18732294  .00000011  00000-0 -45759-5 0  9991
2 21937  82.9333 111.1726 0032960 340.8202 132.6514 13.73152099312503
Epoch (UTC): 24 June 2018 04:29:44
Eccentricity: 0.0032960
inclination: 82.9333°
perigee height: 964 km
apogee height: 1012 km
right ascension of ascending node: 111.1726°
argument of perigee: 340.8202°
revolutions per day: 13.73152099
mean anomaly at epoch: 132.6514°
orbit number at epoch: 31250

The dashed part of the orbit path shows where the satellite is in the earth's shadow,  

DLR